Location: Hurecourt
(47.9030°N, 6.0653°E)
Time: 20:10:01
(UTC+00:00)

BREEZE-M DEB (TANK) - Pass Details

Date: 14 July 2020
Orbit: 428 x 13237 km, 46.0° (Epoch: 14 August)

Event Time Altitude Azimuth Distance (km) Brightness Sun altitude
Rises 00:03:47 0° 249° (WSW) 7,490 8.3 -20.3°
Reaches altitude 10° 00:10:35 10° 248° (WSW) 4,802 7.3 -20.2°
Maximum altitude 00:20:16 63° 170° (S) 950 3.6 -19.9°
Drops below altitude 10° 00:23:51 10° 89° (E) 1,837 5.6 -19.8°
Sets 00:25:22 0° 85° (E) 2,535 6.4 -19.8°
